QPF
0.01 0.01 0.01 0.03 0.02 0.02 0.02 0.03 0.03 0.03 0.03 0.02 0.02 0.01 0.01 0.00 0.00 0.00 0.00 0.01 0.01 0.02 0.03 0.04 0.04 0.02 0.02 0.02 0.02 0.03 0.04 0.03 0.04 0.04 0.02 0.01 0.01 0.01 0.02 0.01 0.01 0.01 0.01
0.02 0.01 0.01 0.02 0.03 0.03 0.03 0.04 0.04 0.05 0.04 0.03 0.02 0.01 0.01 0.01 0.00 0.00 0.00 0.00 0.01 0.01 0.02 0.03 0.04 0.03 0.02 0.02 0.02 0.03 0.04 0.05 0.05 0.05 0.03 0.01 0.01 0.01 0.01 0.01 0.01 0.01 0.01
0.02 0.02 0.01 0.02 0.02 0.04 0.04 0.04 0.04 0.04 0.03 0.02 0.01 0.01 0.01 0.01 0.00 0.00 0.00 0.01 0.01 0.01 0.01 0.02 0.03 0.03 0.03 0.02 0.03 0.03 0.04 0.05 0.07 0.06 0.05 0.03 0.01 0.01 0.01 0.01 0.01 0.01 0.01
0.02 0.02 0.01 0.01 0.02 0.02 0.03 0.03 0.03 0.02 0.02 0.02 0.01 0.01 0.02 0.02 0.01 0.01 0.01 0.01 0.01 0.01 0.01 0.01 0.02 0.03 0.04 0.05 0.06 0.05 0.04 0.04 0.07 0.08 0.06 0.04 0.03 0.02 0.01 0.01 0.00 0.01 0.01
0.02 0.02 0.02 0.01 0.01 0.02 0.02 0.02 0.03 0.04 0.04 0.03 0.02 0.02 0.01 0.02 0.01 0.01 0.01 0.01 0.01 0.01 0.01 0.01 0.01 0.02 0.04 0.07 0.11 0.10 0.08 0.07 0.07 0.08 0.07 0.05 0.04 0.04 0.02 0.02 0.02 0.01 0.01
0.03 0.02 0.02 0.02 0.01 0.01 0.01 0.02 0.03 0.05 0.06 0.06 0.05 0.04 0.03 0.03 0.02 0.02 0.01 0.01 0.01 0.01 0.01 0.01 0.01 0.02 0.03 0.05 0.09 0.10 0.09 0.09 0.07 0.06 0.05 0.05 0.04 0.03 0.03 0.03 0.03 0.03 0.03
0.04 0.04 0.02 0.02 0.01 0.01 0.02 0.02 0.03 0.05 0.06 0.07 0.07 0.06 0.04 0.04 0.04 0.03 0.02 0.02 0.01 0.01 0.01 0.01 0.02 0.02 0.04 0.04 0.04 0.04 0.05 0.06 0.05 0.05 0.05 0.04 0.04 0.03 0.04 0.04 0.03 0.02 0.02
0.05 0.05 0.04 0.03 0.02 0.01 0.01 0.01 0.01 0.03 0.05 0.06 0.07 0.06 0.06 0.05 0.04 0.03 0.02 0.02 0.02 0.02 0.02 0.03 0.03 0.03 0.04 0.05 0.04 0.03 0.02 0.03 0.04 0.04 0.04 0.04 0.03 0.03 0.03 0.03 0.03 0.03 0.02
0.06 0.05 0.05 0.04 0.04 0.03 0.02 0.01 0.01 0.01 0.02 0.03 0.05 0.06 0.06 0.05 0.04 0.03 0.02 0.02 0.03 0.03 0.03 0.03 0.04 0.04 0.03 0.03 0.03 0.02 0.01 0.02 0.03 0.04 0.05 0.04 0.04 0.03 0.03 0.02 0.03 0.04 0.04
0.03 0.05 0.05 0.04 0.04 0.05 0.04 0.03 0.02 0.01 0.01 0.02 0.02 0.03 0.04 0.03 0.03 0.03 0.02 0.02 0.03 0.04 0.04 0.04 0.04 0.04 0.04 0.03 0.03 0.02 0.01 0.01 0.02 0.03 0.03 0.04 0.03 0.03 0.03 0.03 0.02 0.03 0.04
0.02 0.03 0.05 0.03 0.02 0.03 0.03 0.03 0.02 0.02 0.02 0.02 0.02 0.02 0.03 0.02 0.02 0.01 0.02 0.02 0.02 0.02 0.02 0.02 0.03 0.03 0.02 0.02 0.02 0.02 0.02 0.01 0.01 0.01 0.03 0.03 0.03 0.03 0.03 0.03 0.03 0.03 0.03
0.01 0.02 0.03 0.05 0.03 0.01 0.02 0.02 0.02 0.02 0.02 0.02 0.03 0.03 0.03 0.03 0.03 0.02 0.02 0.02 0.02 0.01 0.01 0.01 0.01 0.02 0.02 0.01 0.01 0.01 0.01 0.01 0.01 0.01 0.01 0.03 0.04 0.04 0.04 0.04 0.04 0.04 0.04
0.01 0.01 0.01 0.03 0.05 0.04 0.02 0.01 0.01 0.01 0.01 0.02 0.03 0.03 0.03 0.04 0.03 0.03 0.03 0.03 0.02 0.02 0.01 0.01 0.01 0.01 0.01 0.01 0.01 0.01 0.00 0.00 0.00 0.00 0.01 0.02 0.03 0.03 0.04 0.04 0.05 0.05 0.04
0.01 0.01 0.01 0.02 0.04 0.05 0.04 0.03 0.02 0.02 0.02 0.02 0.02 0.03 0.03 0.03 0.04 0.05 0.04 0.04 0.03 0.02 0.02 0.01 0.01 0.01 0.01 0.01 0.01 0.00 0.00 0.00 0.00 0.00 0.01 0.01 0.02 0.02 0.03 0.04 0.04 0.04 0.04
0.02 0.01 0.01 0.01 0.02 0.03 0.04 0.04 0.04 0.03 0.02 0.02 0.02 0.03 0.02 0.02 0.03 0.04 0.04 0.04 0.04 0.03 0.02 0.01 0.01 0.01 0.01 0.01 0.01 0.01 0.00 0.00 0.00 0.00 0.01 0.01 0.01 0.01 0.01 0.02 0.03 0.03 0.04
0.01 0.01 0.01 0.01 0.01 0.01 0.02 0.03 0.03 0.04 0.03 0.02 0.02 0.03 0.03 0.02 0.01 0.02 0.03 0.03 0.03 0.03 0.02 0.01 0.01 0.01 0.01 0.01 0.01 0.01 0.00 0.01 0.01 0.01 0.01 0.01 0.01 0.01 0.01 0.01 0.01 0.02 0.02
0.00 0.00 0.00 0.00 0.00 0.01 0.01 0.01 0.02 0.02 0.03 0.02 0.03 0.03 0.04 0.03 0.02 0.02 0.03 0.03 0.03 0.03 0.03 0.02 0.01 0.01 0.01 0.01 0.01 0.01 0.01 0.01 0.01 0.01 0.01 0.01 0.01 0.01 0.01 0.01 0.01 0.01 0.01
0.01 0.00 0.00 0.00 0.00 0.00 0.01 0.01 0.01 0.01 0.02 0.02 0.02 0.03 0.04 0.04 0.03 0.03 0.03 0.03 0.03 0.03 0.03 0.03 0.02 0.02 0.01 0.01 0.01 0.01 0.02 0.02 0.01 0.01 0.01 0.01 0.01 0.01 0.01 0.01 0.01 0.01 0.01
0.01 0.00 0.00 0.00 0.00 0.00 0.01 0.01 0.01 0.01 0.01 0.02 0.02 0.03 0.03 0.04 0.05 0.04 0.04 0.04 0.04 0.04 0.03 0.03 0.03 0.02 0.02 0.03 0.03 0.03 0.02 0.01 0.01 0.01 0.01 0.01 0.01 0.01 0.01 0.01 0.01 0.01 0.01
0.01 0.01 0.01 0.00 0.00 0.00 0.00 0.01 0.01 0.02 0.02 0.02 0.03 0.03 0.03 0.03 0.04 0.04 0.03 0.04 0.04 0.03 0.03 0.03 0.03 0.03 0.03 0.03 0.03 0.02 0.02 0.01 0.01 0.01 0.01 0.01 0.01 0.01 0.01 0.01 0.01 0.01 0.00
0.01 0.01 0.01 0.01 0.00 0.00 0.00 0.00 0.01 0.01 0.02 0.03 0.03 0.03 0.03 0.04 0.03 0.03 0.03 0.03 0.04 0.04 0.03 0.03 0.03 0.03 0.03 0.03 0.02 0.02 0.02 0.02 0.01 0.01 0.01 0.02 0.02 0.02 0.01 0.01 0.01 0.01 0.01
0.02 0.01 0.01 0.01 0.00 0.00 0.01 0.01 0.01 0.01 0.02 0.02 0.03 0.03 0.03 0.03 0.03 0.03 0.03 0.03 0.03 0.04 0.03 0.03 0.03 0.02 0.02 0.03 0.03 0.03 0.03 0.03 0.02 0.01 0.01 0.01 0.02 0.02 0.02 0.02 0.02 0.02 0.01
0.02 0.01 0.01 0.01 0.01 0.01 0.01 0.01 0.01 0.01 0.01 0.01 0.02 0.02 0.02 0.02 0.02 0.02 0.02 0.02 0.02 0.02 0.02 0.02 0.02 0.02 0.02 0.02 0.03 0.03 0.03 0.02 0.02 0.02 0.02 0.02 0.02 0.02 0.02 0.02 0.02 0.02 0.02
0.02 0.02 0.02 0.01 0.01 0.01 0.01 0.01 0.01 0.01 0.01 0.01 0.01 0.01 0.01 0.01 0.01 0.01 0.01 0.01 0.01 0.01 0.01 0.01 0.01 0.01 0.01 0.02 0.02 0.02 0.02 0.03 0.03 0.02 0.02 0.02 0.02 0.02 0.02 0.02 0.02 0.02 0.02
0.02 0.02 0.01 0.01 0.01 0.01 0.01 0.01 0.01 0.01 0.01 0.01 0.01 0.01 0.01 0.01 0.01 0.01 0.01 0.01 0.01 0.01 0.01 0.01 0.01 0.02 0.02 0.02 0.02 0.03 0.03 0.03 0.03 0.03 0.02 0.02 0.02 0.02 0.02 0.02 0.03 0.03 0.02
0.02 0.02 0.01 0.01 0.01 0.01 0.01 0.01 0.01 0.01 0.01 0.01 0.01 0.01 0.01 0.01 0.01 0.01 0.01 0.01 0.01 0.01 0.01 0.01 0.01 0.02 0.02 0.02 0.02 0.02 0.02 0.03 0.02 0.02 0.02 0.02 0.02 0.03 0.03 0.03 0.03 0.03 0.03
MSLP
1010.29 1010.33 1010.50 1010.81 1011.28 1011.90 1012.64 1013.44 1014.24 1014.99 1015.65 1016.19 1016.62 1016.95 1017.23 1017.48 1017.74 1018.04 1018.37 1018.72 1019.09 1019.44 1019.77 1020.06 1020.34 1020.60 1020.86 1021.15 1021.46 1021.79 1022.13 1022.46 1022.75 1023.00 1023.18 1023.31 1023.37 1023.40 1023.40 1023.38 1023.35 1023.33 1023.30
1009.78 1009.85 1010.05 1010.40 1010.94 1011.63 1012.44 1013.32 1014.20 1015.01 1015.72 1016.29 1016.73 1017.07 1017.33 1017.56 1017.81 1018.08 1018.40 1018.74 1019.11 1019.46 1019.80 1020.10 1020.38 1020.65 1020.92 1021.21 1021.53 1021.87 1022.23 1022.57 1022.89 1023.16 1023.36 1023.49 1023.55 1023.56 1023.54 1023.49 1023.44 1023.39 1023.35
1009.32 1009.43 1009.68 1010.09 1010.69 1011.44 1012.32 1013.27 1014.20 1015.07 1015.82 1016.41 1016.87 1017.20 1017.46 1017.68 1017.90 1018.16 1018.46 1018.80 1019.15 1019.50 1019.84 1020.14 1020.42 1020.68 1020.95 1021.23 1021.54 1021.88 1022.24 1022.59 1022.91 1023.19 1023.40 1023.55 1023.62 1023.63 1023.59 1023.54 1023.47 1023.41 1023.37
1008.95 1009.12 1009.43 1009.90 1010.55 1011.36 1012.29 1013.28 1014.25 1015.14 1015.91 1016.53 1017.00 1017.34 1017.60 1017.82 1018.04 1018.29 1018.58 1018.91 1019.25 1019.59 1019.91 1020.20 1020.47 1020.72 1020.96 1021.23 1021.51 1021.83 1022.17 1022.50 1022.82 1023.10 1023.32 1023.47 1023.55 1023.57 1023.55 1023.50 1023.44 1023.38 1023.34
1008.68 1008.92 1009.29 1009.82 1010.52 1011.36 1012.31 1013.31 1014.29 1015.19 1015.96 1016.59 1017.08 1017.45 1017.73 1017.97 1018.21 1018.47 1018.76 1019.07 1019.40 1019.73 1020.03 1020.30 1020.54 1020.76 1020.98 1021.21 1021.46 1021.73 1022.03 1022.34 1022.63 1022.90 1023.11 1023.27 1023.36 1023.40 1023.40 1023.37 1023.33 1023.29 1023.26
1008.52 1008.83 1009.26 1009.84 1010.56 1011.41 1012.34 1013.32 1014.28 1015.16 1015.93 1016.57 1017.08 1017.49 1017.82 1018.10 1018.38 1018.66 1018.97 1019.28 1019.60 1019.90 1020.18 1020.42 1020.62 1020.81 1020.99 1021.17 1021.38 1021.61 1021.86 1022.12 1022.38 1022.61 1022.81 1022.97 1023.07 1023.13 1023.16 1023.16 1023.14 1023.13 1023.11
1008.48 1008.85 1009.33 1009.92 1010.65 1011.47 1012.37 1013.29 1014.20 1015.04 1015.80 1016.44 1016.99 1017.44 1017.83 1018.18 1018.51 1018.84 1019.17 1019.49 1019.79 1020.07 1020.31 1020.52 1020.69 1020.84 1020.98 1021.12 1021.28 1021.46 1021.66 1021.88 1022.09 1022.28 1022.46 1022.60 1022.70 1022.78 1022.83 1022.86 1022.88 1022.89 1022.90
1008.56 1008.97 1009.48 1010.08 1010.77 1011.55 1012.38 1013.22 1014.06 1014.85 1015.57 1016.21 1016.79 1017.30 1017.76 1018.18 1018.58 1018.96 1019.31 1019.64 1019.93 1020.18 1020.39 1020.55 1020.69 1020.80 1020.91 1021.03 1021.15 1021.30 1021.45 1021.62 1021.78 1021.93 1022.07 1022.19 1022.29 1022.37 1022.44 1022.49 1022.53 1022.57 1022.60
1008.77 1009.21 1009.72 1010.30 1010.96 1011.66 1012.40 1013.15 1013.89 1014.60 1015.28 1015.92 1016.51 1017.08 1017.60 1018.10 1018.56 1018.98 1019.36 1019.68 1019.96 1020.18 1020.35 1020.48 1020.59 1020.68 1020.77 1020.87 1020.98 1021.10 1021.23 1021.36 1021.48 1021.59 1021.69 1021.78 1021.86 1021.93 1022.00 1022.07 1022.13 1022.18 1022.23
1009.12 1009.56 1010.06 1010.62 1011.21 1011.83 1012.47 1013.11 1013.75 1014.38 1015.00 1015.61 1016.21 1016.81 1017.38 1017.93 1018.43 1018.88 1019.27 1019.59 1019.84 1020.03 1020.17 1020.28 1020.38 1020.47 1020.56 1020.66 1020.77 1020.89 1021.00 1021.10 1021.18 1021.26 1021.32 1021.37 1021.42 1021.48 1021.55 1021.61 1021.69 1021.76 1021.81
1009.57 1010.01 1010.50 1011.02 1011.56 1012.10 1012.64 1013.17 1013.70 1014.23 1014.78 1015.35 1015.94 1016.54 1017.13 1017.71 1018.23 1018.69 1019.08 1019.38 1019.61 1019.77 1019.90 1019.99 1020.09 1020.19 1020.30 1020.42 1020.55 1020.67 1020.77 1020.85 1020.91 1020.95 1020.97 1020.99 1021.01 1021.05 1021.10 1021.16 1021.23 1021.31 1021.38
1010.09 1010.53 1011.00 1011.49 1011.98 1012.45 1012.90 1013.33 1013.76 1014.21 1014.68 1015.19 1015.75 1016.32 1016.91 1017.48 1018.00 1018.45 1018.82 1019.10 1019.31 1019.46 1019.58 1019.68 1019.78 1019.90 1020.04 1020.19 1020.34 1020.47 1020.57 1020.64 1020.67 1020.67 1020.66 1020.64 1020.63 1020.64 1020.68 1020.73 1020.80 1020.87 1020.94
1010.61 1011.05 1011.52 1011.99 1012.44 1012.86 1013.24 1013.60 1013.95 1014.32 1014.72 1015.17 1015.67 1016.21 1016.76 1017.30 1017.80 1018.23 1018.58 1018.84 1019.04 1019.18 1019.31 1019.42 1019.55 1019.70 1019.87 1020.04 1020.20 1020.33 1020.42 1020.47 1020.46 1020.43 1020.38 1020.33 1020.30 1020.29 1020.31 1020.35 1020.41 1020.48 1020.54
1011.08 1011.52 1011.98 1012.44 1012.88 1013.27 1013.61 1013.93 1014.23 1014.54 1014.89 1015.28 1015.73 1016.22 1016.73 1017.23 1017.69 1018.09 1018.42 1018.68 1018.88 1019.04 1019.18 1019.33 1019.49 1019.66 1019.85 1020.03 1020.19 1020.30 1020.36 1020.37 1020.32 1020.25 1020.16 1020.08 1020.02 1019.99 1019.99 1020.03 1020.08 1020.14 1020.18
1011.43 1011.86 1012.33 1012.79 1013.23 1013.62 1013.97 1014.27 1014.55 1014.84 1015.16 1015.52 1015.93 1016.38 1016.84 1017.30 1017.73 1018.10 1018.42 1018.68 1018.90 1019.08 1019.26 1019.44 1019.64 1019.84 1020.03 1020.20 1020.33 1020.40 1020.41 1020.36 1020.26 1020.13 1020.00 1019.89 1019.80 1019.76 1019.75 1019.77 1019.81 1019.84 1019.86
1011.64 1012.07 1012.54 1013.01 1013.46 1013.87 1014.24 1014.57 1014.88 1015.18 1015.51 1015.86 1016.25 1016.67 1017.10 1017.52 1017.92 1018.29 1018.61 1018.88 1019.13 1019.36 1019.58 1019.80 1020.02 1020.23 1020.41 1020.55 1020.63 1020.64 1020.58 1020.45 1020.29 1020.11 1019.93 1019.78 1019.67 1019.61 1019.58 1019.58 1019.59 1019.58 1019.56
1011.75 1012.16 1012.61 1013.09 1013.57 1014.02 1014.43 1014.82 1015.18 1015.53 1015.89 1016.27 1016.66 1017.07 1017.49 1017.90 1018.29 1018.64 1018.97 1019.28 1019.56 1019.83 1020.10 1020.35 1020.59 1020.80 1020.96 1021.06 1021.07 1021.00 1020.86 1020.66 1020.42 1020.18 1019.95 1019.77 1019.63 1019.53 1019.47 1019.43 1019.39 1019.33 1019.24
1011.81 1012.19 1012.63 1013.10 1013.60 1014.09 1014.56 1015.01 1015.45 1015.87 1016.30 1016.72 1017.14 1017.57 1017.98 1018.39 1018.77 1019.13 1019.47 1019.80 1020.12 1020.43 1020.73 1021.02 1021.27 1021.47 1021.60 1021.65 1021.59 1021.45 1021.23 1020.96 1020.65 1020.35 1020.08 1019.85 1019.67 1019.53 1019.42 1019.32 1019.20 1019.06 1018.87
1011.90 1012.25 1012.66 1013.12 1013.62 1014.14 1014.67 1015.19 1015.71 1016.22 1016.71 1017.20 1017.66 1018.11 1018.54 1018.94 1019.32 1019.69 1020.03 1020.38 1020.72 1021.06 1021.39 1021.69 1021.95 1022.14 1022.24 1022.24 1022.14 1021.93 1021.65 1021.32 1020.96 1020.62 1020.30 1020.03 1019.79 1019.59 1019.41 1019.21 1018.99 1018.73 1018.43
1012.09 1012.40 1012.78 1013.22 1013.71 1014.25 1014.82 1015.40 1015.99 1016.57 1017.14 1017.69 1018.20 1018.68 1019.12 1019.52 1019.89 1020.25 1020.59 1020.93 1021.28 1021.63 1021.97 1022.28 1022.54 1022.72 1022.80 1022.77 1022.63 1022.40 1022.08 1021.71 1021.33 1020.95 1020.60 1020.28 1019.99 1019.71 1019.42 1019.11 1018.76 1018.35 1017.91
1012.38 1012.68 1013.03 1013.45 1013.93 1014.46 1015.05 1015.67 1016.31 1016.95 1017.58 1018.18 1018.73 1019.23 1019.68 1020.07 1020.43 1020.76 1021.09 1021.42 1021.75 1022.09 1022.42 1022.73 1022.98 1023.16 1023.23 1023.19 1023.05 1022.80 1022.48 1022.11 1021.72 1021.32 1020.94 1020.58 1020.22 1019.85 1019.45 1019.00 1018.49 1017.93 1017.32
1012.77 1013.07 1013.41 1013.80 1014.26 1014.79 1015.37 1016.01 1016.67 1017.35 1018.02 1018.65 1019.23 1019.74 1020.19 1020.57 1020.91 1021.21 1021.50 1021.80 1022.10 1022.42 1022.73 1023.03 1023.27 1023.44 1023.52 1023.49 1023.36 1023.13 1022.83 1022.48 1022.10 1021.70 1021.30 1020.89 1020.46 1019.99 1019.46 1018.86 1018.20 1017.47 1016.71
1013.18 1013.51 1013.87 1014.25 1014.69 1015.20 1015.77 1016.40 1017.06 1017.76 1018.44 1019.09 1019.68 1020.20 1020.64 1021.00 1021.31 1021.58 1021.84 1022.09 1022.36 1022.64 1022.93 1023.20 1023.43 1023.60 1023.68 1023.67 1023.57 1023.38 1023.11 1022.79 1022.43 1022.04 1021.62 1021.17 1020.66 1020.10 1019.45 1018.71 1017.89 1017.01 1016.11
1013.52 1013.93 1014.32 1014.72 1015.16 1015.64 1016.19 1016.80 1017.46 1018.14 1018.82 1019.47 1020.06 1020.58 1021.01 1021.36 1021.65 1021.89 1022.11 1022.33 1022.55 1022.80 1023.05 1023.29 1023.51 1023.67 1023.77 1023.77 1023.70 1023.54 1023.31 1023.01 1022.67 1022.29 1021.85 1021.36 1020.79 1020.14 1019.38 1018.53 1017.58 1016.58 1015.56
1013.74 1014.25 1014.70 1015.14 1015.58 1016.06 1016.59 1017.17 1017.81 1018.47 1019.14 1019.78 1020.37 1020.89 1021.32 1021.66 1021.93 1022.15 1022.35 1022.53 1022.73 1022.94 1023.16 1023.37 1023.57 1023.72 1023.81 1023.83 1023.77 1023.63 1023.42 1023.14 1022.81 1022.42 1021.96 1021.43 1020.80 1020.08 1019.25 1018.31 1017.28 1016.20 1015.11
1013.79 1014.42 1014.96 1015.45 1015.92 1016.41 1016.93 1017.49 1018.10 1018.75 1019.40 1020.03 1020.62 1021.13 1021.56 1021.90 1022.17 1022.39 1022.57 1022.74 1022.91 1023.09 1023.29 1023.48 1023.65 1023.78 1023.86 1023.87 1023.80 1023.66 1023.45 1023.17 1022.82 1022.41 1021.92 1021.35 1020.69 1019.92 1019.03 1018.05 1016.99 1015.87 1014.76
Thickness
5653 5653 5654 5654 5655 5655 5654 5654 5655 5654 5654 5654 5654 5654 5654 5654 5654 5655 5655 5656 5656 5657 5657 5656 5656 5656 5655 5655 5654 5653 5653 5652 5651 5651 5650 5649 5649 5648 5647 5646 5645 5644 5644
5648 5648 5648 5648 5648 5649 5648 5648 5648 5648 5647 5647 5647 5647 5647 5647 5647 5648 5648 5649 5649 5650 5650 5650 5650 5650 5649 5648 5648 5647 5646 5646 5645 5645 5644 5643 5642 5641 5641 5640 5639 5638 5637
5642 5642 5642 5642 5643 5643 5642 5642 5641 5641 5640 5640 5640 5640 5640 5640 5640 5641 5641 5642 5642 5642 5642 5643 5643 5643 5643 5642 5642 5641 5640 5640 5639 5638 5638 5637 5636 5635 5634 5633 5632 5631 5631
5636 5636 5637 5637 5637 5636 5636 5635 5635 5634 5633 5632 5632 5632 5632 5633 5633 5634 5634 5634 5634 5635 5635 5635 5635 5635 5635 5635 5635 5634 5633 5633 5632 5632 5631 5630 5629 5628 5627 5626 5626 5625 5624
5630 5630 5631 5631 5631 5630 5630 5629 5628 5627 5625 5625 5624 5624 5625 5625 5626 5626 5627 5627 5627 5627 5627 5627 5627 5627 5627 5627 5627 5626 5625 5625 5624 5624 5623 5623 5622 5621 5620 5619 5618 5618 5617
5624 5624 5625 5625 5625 5624 5623 5622 5621 5620 5619 5618 5618 5616 5616 5617 5618 5618 5619 5619 5619 5619 5619 5619 5619 5619 5619 5618 5618 5618 5618 5617 5617 5616 5615 5615 5614 5613 5613 5612 5611 5610 5609
5618 5619 5618 5618 5618 5618 5617 5616 5614 5612 5610 5610 5609 5607 5607 5609 5610 5610 5610 5610 5611 5611 5611 5611 5611 5611 5610 5610 5609 5609 5609 5609 5609 5608 5607 5607 5606 5606 5605 5604 5603 5602 5602
5612 5612 5612 5612 5612 5611 5609 5609 5608 5605 5603 5603 5603 5600 5598 5598 5600 5602 5601 5602 5602 5603 5603 5603 5603 5602 5602 5601 5601 5600 5600 5600 5600 5600 5599 5598 5598 5597 5597 5596 5595 5594 5594
5605 5606 5606 5606 5605 5604 5603 5602 5602 5601 5597 5595 5597 5596 5592 5591 5590 5591 5592 5593 5593 5594 5594 5594 5594 5594 5593 5592 5592 5592 5591 5591 5591 5591 5591 5590 5589 5589 5588 5588 5587 5586 5585
5598 5598 5598 5598 5598 5598 5597 5596 5596 5595 5593 5589 5588 5588 5588 5587 5584 5582 5582 5583 5585 5585 5585 5586 5586 5585 5584 5584 5583 5583 5582 5582 5582 5581 5581 5581 5580 5580 5579 5579 5579 5578 5577
5590 5591 5590 5590 5590 5590 5590 5589 5588 5588 5587 5586 5583 5580 5578 5577 5577 5576 5574 5574 5575 5576 5577 5577 5577 5576 5575 5575 5574 5574 5573 5573 5572 5572 5572 5572 5571 5571 5570 5569 5569 5568 5567
5582 5583 5583 5583 5583 5583 5583 5582 5582 5581 5580 5579 5578 5576 5575 5572 5570 5568 5567 5566 5566 5567 5568 5569 5569 5568 5567 5566 5566 5565 5564 5564 5563 5563 5563 5562 5562 5561 5560 5560 5559 5558 5558
5574 5575 5575 5575 5575 5576 5576 5575 5574 5574 5573 5573 5572 5570 5570 5569 5567 5564 5562 5559 5557 5558 5559 5560 5560 5560 5559 5558 5557 5556 5556 5555 5555 5554 5554 5553 5552 5551 5550 5550 5549 5548 5547
5568 5568 5568 5568 5568 5568 5568 5567 5567 5566 5566 5565 5565 5564 5562 5562 5561 5559 5556 5553 5550 5548 5549 5551 5552 5552 5551 5549 5549 5548 5547 5547 5546 5545 5545 5544 5543 5541 5540 5540 5539 5538 5536
5560 5561 5561 5561 5561 5560 5560 5560 5559 5558 5558 5558 5557 5556 5555 5554 5553 5552 5551 5549 5546 5544 5543 5543 5542 5543 5542 5541 5540 5539 5539 5538 5537 5536 5535 5534 5533 5531 5530 5529 5528 5527 5526
5552 5552 5553 5553 5553 5553 5553 5552 5552 5551 5550 5550 5549 5548 5547 5546 5545 5544 5543 5542 5541 5539 5537 5536 5535 5534 5533 5532 5530 5530 5530 5529 5528 5527 5526 5524 5523 5521 5520 5519 5518 5517 5516
5544 5544 5545 5545 5545 5545 5545 5545 5544 5544 5543 5542 5541 5540 5539 5538 5536 5535 5534 5533 5532 5531 5529 5527 5525 5524 5523 5522 5521 5520 5520 5519 5518 5517 5516 5514 5513 5511 5510 5509 5507 5506 5505
5535 5536 5536 5536 5536 5537 5537 5537 5536 5536 5535 5534 5533 5532 5531 5530 5528 5527 5526 5525 5524 5523 5521 5519 5516 5514 5513 5512 5511 5510 5509 5509 5508 5507 5506 5504 5503 5501 5500 5498 5497 5496 5494
5525 5526 5527 5527 5528 5528 5528 5528 5528 5527 5527 5527 5526 5524 5523 5522 5521 5519 5518 5517 5516 5514 5512 5510 5507 5504 5503 5501 5500 5499 5499 5498 5498 5497 5496 5495 5493 5491 5490 5488 5487 5485 5484
5515 5516 5517 5518 5519 5519 5519 5519 5519 5518 5518 5518 5517 5517 5516 5515 5514 5512 5510 5509 5507 5504 5502 5500 5498 5496 5493 5491 5489 5489 5488 5487 5487 5486 5485 5484 5482 5481 5479 5478 5476 5475 5473
5505 5506 5507 5508 5509 5509 5510 5510 5510 5510 5509 5509 5508 5508 5508 5507 5506 5505 5504 5501 5499 5496 5494 5492 5489 5487 5484 5481 5480 5479 5478 5477 5476 5475 5474 5473 5472 5471 5469 5468 5465 5464 5463
5494 5495 5496 5497 5499 5500 5501 5501 5501 5500 5500 5499 5499 5498 5498 5497 5497 5497 5496 5494 5492 5489 5486 5484 5481 5479 5477 5475 5472 5470 5467 5465 5465 5465 5462 5462 5461 5460 5459 5457 5456 5454 5452
5482 5484 5485 5486 5488 5490 5491 5491 5491 5491 5491 5490 5490 5489 5489 5488 5488 5487 5486 5485 5483 5481 5480 5477 5474 5472 5470 5468 5464 5461 5458 5456 5456 5454 5450 5451 5450 5449 5448 5447 5445 5443 5441
5471 5472 5474 5475 5476 5478 5480 5481 5481 5480 5480 5480 5480 5480 5479 5479 5477 5476 5475 5474 5473 5471 5470 5468 5467 5465 5462 5459 5456 5454 5451 5447 5445 5442 5440 5439 5439 5438 5437 5436 5434 5432 5430
5458 5460 5462 5463 5465 5466 5468 5469 5470 5469 5469 5469 5470 5470 5470 5469 5468 5467 5465 5463 5462 5461 5460 5458 5457 5455 5453 5450 5447 5443 5439 5436 5435 5432 5429 5427 5427 5425 5425 5425 5423 5420 5418
5446 5448 5449 5451 5453 5455 5456 5458 5458 5458 5458 5458 5458 5459 5459 5459 5458 5457 5455 5453 5451 5451 5449 5447 5445 5443 5441 5439 5437 5434 5431 5427 5424 5421 5419 5416 5414 5411 5412 5414 5411 5409 5406